STARLINK-34048, 63816

Orbit data source: Space-Track

STARLINK-34048, 63816 is a payload satellite owned by SpaceX/Seattle (US) in LEO that was launched on Sun, 04 May 2025 UTC via an FALCON 9 launch vehicle from the Air Force Eastern Test Range (AFETR). Payload-class satellites include a variety of spacecraft equipped with specific instruments for various scientific and technological missions. These include communications satellites like Starlink; space stations such as the ISS; scientific satellites like the Hubble; Earth observation satellites from companies like Planet Labs, Umbra, and HawkEye 360; GPS; miniature CubeSats for education and research; and military/defense satellites.

Loading next visibility...
Identifier
63816, 2025-092N
Orbit
LEO
Country
Flag of USUS
Related business
Manufacturer
SpaceX/Seattle
Mission
Operational Commercial Communications
Bus & Motor
STARLINK V2MO, Unknown motor
Mass
575 kg wet, ~530 kg dry
Launch date (UTC)
2025-05-04 (9 months ago)
Launch vehicle
FALCON 9
Launch site
Air Force Eastern Test Range (AFETR)
Object type
Payload
Rocket body
Debris
Shape & HBR
Box + 2 Pan, 17.7 m
Radar Cross Section
36.964 m², Large (>1 m²)

Expand to show TLE details & history
Last TLE update: 1 day ago

TLE from 1 day ago
0 STARLINK-34048
1 63816U 25092N   26034.31410368  .00072594  00000-0  26171-2 0  9999
2 63816  43.0066   7.0026 0001839 276.3347  83.7295 15.27637240 43405
Epoch: 2026-02-03T07:32Z
TLE epoch observation values (Epoch: 2026-02-03T07:32:18.557Z)
Latitude
-0.00006°
Longitude
120.4284°
Altitude
482.516 km
Speed
7.626 km/s
True Right ascension
00h 28m 00s
True Declination
0° 00' 00"
Sunlit
Object was in daylight at epoch
Visualization orbit readout
Latitude
Unknown
Longitude
Unknown
Altitude
Unknown
Speed
Unknown
Apparent Right ascension
Unknown
Apparent Declination
Unknown
Sunlit
N/A
Visualization observer readout
Local Sidereal Time
16:39:49
Azimuth
Unknown
Elevation
Unknown
Doppler factor
Unknown
Orbital elements
Apogee altitude
486.084 km
Perigee altitude
483.56 km
Semi-major axis
6,862.959 km
Eccentricity
0.00018
Inclination
43.0066°
RAAN
7.0026°
Arg. of periapsis
276.3347°
True anomaly
83.75045°
Mean anomaly
83.7295°
Eccentric anomaly
83.73997°
Mean motion
3.81747 °/min
Orbital period
94.3 mins
BSTAR
0.0026171
Loading maneuver chart data...
Computing Atmospheric mass density...
Loading historical data...
Loading historical data...
Loading historical data...
Loading historical data...
Loading historical data...
Loading historical data...
Loading historical data...

Documentation

Showing up to 5 results
|